| time (UTC) | temp F | wind direction | speed MPH | gust MPH | rain 1hr in | rain 24hr in | rain mn in | humidity % | barometer mb |
| 20260906020101 | 58 | 255 | 6.0 | 10.0 | 0.00 | 0.00 | 0.00 | 83 | 1023.4 |
| 20260906014608 | 58 | 236 | 5.0 | 10.0 | 0.00 | 0.00 | 0.00 | 83 | 1023.6 |
| 20260906013056 | 58 | 265 | 6.0 | 12.0 | 0.00 | 0.00 | 0.00 | 85 | 1023.5 |
| 20260906011536 | 58 | 244 | 8.0 | 12.0 | 0.00 | 0.00 | 0.00 | 87 | 1023.7 |
| 20260906010032 | 57 | 232 | 7.0 | 11.0 | 0.00 | 0.00 | 0.00 | 85 | 1023.8 |
| 20260906004518 | 58 | 242 | 5.0 | 10.0 | 0.00 | 0.00 | 0.00 | 79 | 1023.7 |
| 20260906003016 | 57 | 251 | 5.0 | 9.0 | 0.00 | 0.00 | 0.00 | 82 | 1023.7 |
| 20260906001514 | 57 | 283 | 1.0 | 6.0 | 0.00 | 0.13 | 0.00 | 82 | 1023.7 |
| 20260906000014 | 57 | 237 | 5.0 | 9.0 | 0.00 | 0.13 | 0.00 | 84 | 1023.6 |
| 20260905234511 | 56 | 153 | 2.0 | 4.0 | 0.00 | 0.13 | 0.00 | 87 | 1023.5 |
| 20260905233015 | 55 | 113 | 3.0 | 5.0 | 0.00 | 0.13 | 0.00 | 91 | 1023.4 |
| 20260905231506 | 54 | 105 | 3.0 | 6.0 | 0.00 | 0.13 | 0.00 | 91 | 1023.4 |
| 20260905230007 | 54 | 121 | 4.0 | 7.0 | 0.00 | 0.13 | 0.00 | 91 | 1023.2 |
| 20260905224543 | 55 | 216 | 3.0 | 7.0 | 0.00 | 0.13 | 0.00 | 86 | 1023.0 |
| 20260905223041 | 55 | 235 | 5.0 | 8.0 | 0.00 | 0.13 | 0.00 | 87 | 1022.7 |
| 20260905221532 | 55 | 235 | 4.0 | 7.0 | 0.00 | 0.13 | 0.00 | 87 | 1022.5 |
| 20260905220025 | 54 | 242 | 5.0 | 8.0 | 0.00 | 0.13 | 0.00 | 87 | 1022.3 |
| 20260905214525 | 54 | 175 | 3.0 | 6.0 | 0.00 | 0.13 | 0.00 | 88 | 1022.0 |
| 20260905213021 | 53 | 162 | 5.0 | 11.0 | 0.00 | 0.13 | 0.00 | 89 | 1022.0 |
| 20260905211528 | 54 | 186 | 4.0 | 7.0 | 0.00 | 0.13 | 0.00 | 87 | 1021.6 |
| 20260905210016 | 54 | 222 | 5.0 | 10.0 | 0.00 | 0.13 | 0.00 | 86 | 1021.2 |
| 20260905204514 | 54 | 237 | 4.0 | 10.0 | 0.00 | 0.13 | 0.00 | 86 | 1021.1 |
| 20260905203016 | 54 | 234 | 6.0 | 11.0 | 0.00 | 0.13 | 0.00 | 86 | 1021.0 |
| 20260905201600 | 54 | 240 | 7.0 | 9.0 | 0.00 | 0.13 | 0.00 | 87 | 1021.0 |
| 20260905200106 | 54 | 263 | 6.0 | 10.0 | 0.00 | 0.13 | 0.00 | 86 | 1020.8 |
| 20260905194556 | 54 | 251 | 6.0 | 10.0 | 0.00 | 0.13 | 0.00 | 87 | 1020.7 |
| 20260905193109 | 54 | 250 | 6.0 | 11.0 | 0.00 | 0.13 | 0.00 | 86 | 1020.5 |
| 20260905191555 | 54 | 261 | 6.0 | 11.0 | 0.00 | 0.13 | 0.00 | 87 | 1020.5 |
| 20260905190055 | 53 | 280 | 6.0 | 10.0 | 0.00 | 0.13 | 0.00 | 87 | 1020.4 |
| 20260905184554 | 54 | 237 | 6.0 | 10.0 | 0.00 | 0.13 | 0.00 | 85 | 1020.4 |
| 20260905183056 | 54 | 242 | 6.0 | 12.0 | 0.00 | 0.13 | 0.00 | 86 | 1020.1 |
| 20260905181550 | 53 | 268 | 7.0 | 15.0 | 0.00 | 0.13 | 0.00 | 88 | 1020.1 |
| 20260905180035 | 53 | 263 | 6.0 | 11.0 | 0.00 | 0.13 | 0.00 | 89 | 1020.1 |
| 20260905174534 | 53 | 263 | 7.0 | 14.0 | 0.00 | 0.13 | 0.00 | 89 | 1020.1 |
| 20260905173031 | 53 | 232 | 7.0 | 10.0 | 0.00 | 0.13 | 0.00 | 88 | 1020.2 |
| 20260905171535 | 54 | 262 | 7.0 | 13.0 | 0.00 | 0.13 | 0.00 | 89 | 1020.4 |
| 20260905170028 | 54 | 265 | 7.0 | 15.0 | 0.00 | 0.13 | 0.00 | 88 | 1020.5 |
| 20260905164526 | 55 | 235 | 8.0 | 15.0 | 0.00 | 0.13 | 0.00 | 86 | 1020.7 |
| 20260905163025 | 55 | 303 | 10.0 | 18.0 | 0.00 | 0.13 | 0.00 | 85 | 1020.6 |
| 20260905161523 | 55 | 239 | 11.0 | 14.0 | 0.00 | 0.13 | 0.00 | 84 | 1020.6 |
| 20260905160012 | 55 | 249 | 10.0 | 15.0 | 0.00 | 0.13 | 0.00 | 85 | 1020.6 |
| 20260905154503 | 55 | 290 | 8.0 | 19.0 | 0.00 | 0.13 | 0.00 | 85 | 1020.6 |
| 20260905153003 | 55 | 260 | 10.0 | 17.0 | 0.00 | 0.13 | 0.00 | 84 | 1020.6 |
| 20260905151506 | 55 | 251 | 10.0 | 18.0 | 0.00 | 0.13 | 0.00 | 84 | 1020.6 |
| 20260905150113 | 55 | 250 | 13.0 | 18.0 | 0.00 | 0.13 | 0.00 | 82 | 1020.4 |
| 20260905144557 | 56 | 249 | 10.0 | 17.0 | 0.00 | 0.13 | 0.00 | 83 | 1020.4 |
| 20260905143056 | 55 | 248 | 10.0 | 16.0 | 0.00 | 0.13 | 0.00 | 84 | 1020.3 |
| 20260905141554 | 56 | 256 | 10.0 | 19.0 | 0.00 | 0.13 | 0.00 | 83 | 1020.5 |
| 20260905140038 | 55 | 154 | 10.0 | 16.0 | 0.00 | 0.13 | 0.00 | 83 | 1020.4 |
| 20260905134544 | 0 | 0.0 | 0.0 | 0.00 | 0.13 | 0.00 | 1020.4 | ||
| 20260905133029 | 0 | 0.0 | 0.0 | 0.00 | 0.13 | 0.00 | 1020.4 | ||
| 20260905131525 | 0 | 0.0 | 0.0 | 0.00 | 0.13 | 0.00 | 1020.3 | ||
| 20260905130021 | 0 | 0.0 | 0.0 | 0.00 | 0.13 | 0.00 | 1020.3 | ||
| 20260905124520 | 0 | 0.0 | 0.0 | 0.00 | 0.13 | 0.00 | 1019.9 | ||
| 20260905123012 | 0 | 0.0 | 0.0 | 0.00 | 0.13 | 0.00 | 1020.1 | ||
| 20260905121508 | 0 | 0.0 | 0.0 | 0.00 | 0.13 | 0.00 | 1019.7 | ||
| 20260905120051 | 0 | 0.0 | 0.0 | 0.00 | 0.13 | 0.00 | 1019.6 | ||
| 20260905114546 | 0 | 0.0 | 0.0 | 0.00 | 0.13 | 0.00 | 1019.5 | ||
| 20260905113050 | 0 | 0.0 | 0.0 | 0.00 | 0.13 | 0.00 | 1019.2 | ||
| 20260905111537 | 0 | 0.0 | 0.0 | 0.00 | 0.13 | 0.13 | 1019.2 | ||
| 20260905110036 | 0 | 0.0 | 0.0 | 0.00 | 0.13 | 0.13 | 1019.0 | ||
| 20260905104529 | 0 | 0.0 | 0.0 | 0.00 | 0.13 | 0.13 | 1019.0 | ||
| 20260905103033 | 0 | 0.0 | 0.0 | 0.00 | 0.13 | 0.13 | 1018.7 | ||
| 20260905101521 | 0 | 0.0 | 0.0 | 0.00 | 0.13 | 0.13 | 1018.3 | ||
| 20260905094553 | 0 | 0.0 | 0.0 | 0.00 | 0.13 | 0.13 | 1017.8 | ||
| 20260905093033 | 0 | 0.0 | 0.0 | 0.00 | 0.13 | 0.13 | 1017.6 | ||
| 20260905091526 | 0 | 0.0 | 0.0 | 0.00 | 0.13 | 0.13 | 1017.3 | ||
| 20260905090009 | 0 | 0.0 | 0.0 | 0.00 | 0.13 | 0.13 | 1017.0 | ||
| 20260905084503 | 0 | 0.0 | 0.0 | 0.00 | 0.13 | 0.13 | 1016.9 | ||
| 20260905083058 | 0 | 0.0 | 0.0 | 0.00 | 0.13 | 0.13 | 1016.6 | ||
| 20260905081554 | 0 | 0.0 | 0.0 | 0.00 | 0.17 | 0.13 | 1016.1 | ||
| 20260905080049 | 0 | 0.0 | 0.0 | 0.00 | 0.17 | 0.13 | 1015.7 | ||
| 20260905074547 | 0 | 0.0 | 0.0 | 0.00 | 0.17 | 0.13 | 1015.3 | ||
| 20260905073040 | 0 | 0.0 | 0.0 | 0.00 | 0.17 | 0.13 | 1015.0 | ||
| 20260905071536 | 0 | 0.0 | 0.0 | 0.00 | 0.17 | 0.13 | 1015.0 | ||
| 20260905070019 | 0 | 0.0 | 0.0 | 0.00 | 0.17 | 0.13 | 1014.9 | ||
| 20260905064513 | 0 | 0.0 | 0.0 | 0.00 | 0.17 | 0.13 | 1014.7 | ||
| 20260905063009 | 0 | 0.0 | 0.0 | 0.00 | 0.17 | 0.13 | 1014.5 | ||
| 20260905061504 | 0 | 0.0 | 0.0 | 0.00 | 0.17 | 0.13 | 1014.4 | ||
| 20260905060002 | 0 | 0.0 | 0.0 | 0.00 | 0.17 | 0.13 | 1014.2 | ||
| 20260905054556 | 0 | 0.0 | 0.0 | 0.00 | 0.17 | 0.13 | 1014.2 | ||
| 20260905053051 | 0 | 0.0 | 0.0 | 0.00 | 0.17 | 0.13 | 1013.9 | ||
| 20260905051547 | 0 | 0.0 | 0.0 | 0.00 | 0.17 | 0.13 | 1013.8 | ||
| 20260905050025 | 0 | 0.0 | 0.0 | 0.00 | 0.17 | 0.13 | 1013.7 | ||
| 20260905044523 | 0 | 0.0 | 0.0 | 0.00 | 0.17 | 0.13 | 1013.6 | ||
| 20260905043002 | 0 | 0.0 | 0.0 | 0.00 | 0.17 | 0.13 | 1013.4 | ||
| 20260905041600 | 0 | 0.0 | 0.0 | 0.00 | 0.17 | 0.13 | 1013.3 | ||
| 20260905041503 | 0 | 0.0 | 0.0 | 0.00 | 0.17 | 0.13 | 1013.3 | ||
| 20260905040058 | 0 | 0.0 | 0.0 | 0.00 | 0.17 | 0.13 | 1013.3 | ||
| 20260905034550 | 0 | 0.0 | 0.0 | 0.00 | 0.17 | 0.13 | 1013.5 | ||
| 20260905033049 | 0 | 0.0 | 0.0 | 0.00 | 0.17 | 0.13 | 1013.7 | ||
| 20260905031548 | 0 | 0.0 | 0.0 | 0.00 | 0.18 | 0.13 | 1013.7 | ||
| 20260905030036 | 0 | 0.0 | 0.0 | 0.00 | 0.18 | 0.13 | 1013.7 | ||
| 20260905024531 | 0 | 0.0 | 0.0 | 0.00 | 0.18 | 0.13 | 1013.5 | ||
| 20260905023010 | 0 | 0.0 | 0.0 | 0.00 | 0.18 | 0.13 | 1013.4 | ||
| 20260905021506 | 0 | 0.0 | 0.0 | 0.00 | 0.32 | 0.13 | 1013.3 |